Home   Weather   Merzig   Past weeks

Flag for Germany Past Weather in Merzig, Saarland, Germany — Yesterday and Last 2 Weeks

Now
60 °F

Partly sunny.


Feels Like: 60 °F
Forecast: 41 / 49 °F
Wind: 5 mph from Southwest

Location: Luxembourg / Luxembourg

Current Time: Apr 24, 2017 at 7:32:52 pm

Latest Report: Apr 24, 2017 at 6:00 pm


Visibility: 19 mi

Pressure: 29.86 "Hg

Humidity: 33%

Dew Point: 30 °F

Location of MerzigLocation

Past Weather in Merzig — Graph

°F

Merzig Temperature Yesterday

Maximum temperature yesterday: 53 °F (at 5:00 pm)
Minimum temperature yesterday: 36 °F (at 2:00 am)
Average temperature yesterday: 44 °F

High & Low Weather Summary for the Past Weeks

 TemperatureHumidityPressure
High71 °F (Apr 9, 6:00 pm)95% (Apr 17, 12:00 pm)30.64 "Hg (Apr 17, 12:00 pm)
Low31 °F (Apr 20, 7:00 am)30% (Apr 9, 6:00 pm)29.86 "Hg (Apr 24, 6:00 pm)
Average47 °F63%30.23 "Hg
* Reported Apr 9 6:00 pm — Apr 24 6:00 pm, Merzig, Weather by CustomWeather, © 2017

Note: Actual official high and low records may vary slightly from our data, if they occured in-between our weather recording intervals... More about our weather records

Advertising

Merzig Weather History for the Previous 24 Hours

Scroll right to see more
 ConditionsComfort  
Time TempWeatherWind HumidityBarometerVisibility
6:00 pm
Mon, Apr 24
60 °FPartly sunny.5 mph33%29.86 "Hg19 mi
5:00 pm60 °FPartly sunny.6 mph31%29.89 "Hg19 mi
4:00 pm60 °FPartly sunny.5 mph32%29.92 "Hg19 mi
3:00 pm56 °FPartly sunny.N/A36%29.96 "Hg19 mi
2:00 pm55 °FScattered clouds.2 mph37%30.00 "Hg22 mi
1:00 pm54 °FScattered clouds.N/A39%30.03 "Hg22 mi
12:00 pm51 °FPassing clouds.N/A43%30.06 "Hg22 mi
11:00 am49 °FPassing clouds.N/A45%30.08 "Hg22 mi
10:00 am46 °FPassing clouds.3 mph49%30.10 "Hg22 mi
9:00 am44 °FPassing clouds.N/A59%30.12 "Hg22 mi
8:00 am39 °FPassing clouds.N/A69%30.14 "Hg22 mi
7:00 am37 °FSunny.2 mph69%30.15 "Hg19 mi
6:00 am37 °FClear.2 mph71%30.16 "Hg31 mi
5:00 am38 °FClear.2 mph67%30.17 "Hg25 mi
4:00 am38 °FClear.2 mph66%30.19 "Hg31 mi
3:00 am37 °FClear.2 mph67%30.22 "Hg31 mi
2:00 am40 °FClear.3 mph60%30.23 "Hg31 mi
1:00 am39 °FClear.3 mph63%30.25 "Hg19 mi
12:00 am41 °FClear.3 mph57%30.25 "Hg19 mi
11:00 pm
Sun, Apr 23
44 °FClear.5 mph53%30.26 "Hg19 mi
10:00 pm45 °FClear.5 mph50%30.26 "Hg19 mi
9:00 pm47 °FPassing clouds.5 mph45%30.25 "Hg19 mi
8:00 pm50 °FPassing clouds.6 mph40%30.24 "Hg19 mi
7:00 pm52 °FPassing clouds.5 mph38%30.23 "Hg19 mi
Weather by CustomWeather, © 2017

See weather overviewHow to use our weather pages